GOMX-1

Last updated on Thu Oct 30 2025 00:03:10 GMT+0000 (Coordinated Universal Time)

1 39430U 13066Q 25302.54240390 .00002702 00000+0 41749-3 0 9992 2 39430 97.6645 152.4320 0132414 97.6431 263.9836 14.68296371636054
UTC large
Height (km)
Speed (km/s)
/
Latitude / Longitude
Inclination (degrees)
Orbital Period (minutes)
Azimuth
Elevation
Range (km)
Doppler Factor

Next 0 passes for location: London (51.5072 / 0.1276)

Sorry there are no passes over London.